Wind_Speed
45 44 44 44 46 47 48 48 50 52 54 57 60 62 64 65 65 64 63 61 58 56 54 52 49 48 46 43 40 37 34 32 31 31 29 27 25 24 24 23 22 22 23
50 50 51 51 52 52 51 51 51 53 55 57 60 64 66 68 69 69 69 68 65 63 60 57 54 52 50 46 43 39 36 33 32 31 30 28 26 24 23 23 22 21 22
56 57 57 57 56 55 55 54 53 52 53 54 57 60 65 69 72 73 73 72 71 69 66 63 59 57 54 50 46 42 39 35 33 31 30 28 26 24 23 22 21 21 21
60 62 62 62 60 59 57 55 54 53 52 52 53 56 59 64 69 73 76 76 75 74 71 68 65 61 58 55 51 47 42 38 34 32 30 29 26 24 23 22 21 20 21
63 64 65 64 63 61 58 56 55 53 51 50 51 51 53 56 60 65 72 76 77 76 74 71 69 65 61 59 56 51 47 42 37 34 32 29 26 24 23 21 21 20 21
65 65 64 63 62 60 58 55 53 51 49 49 48 48 48 49 51 54 59 65 72 75 75 74 72 67 64 60 57 55 51 46 40 37 33 30 28 25 23 21 20 20 21
65 63 62 61 59 57 54 51 48 46 47 48 47 46 46 45 45 45 46 51 57 65 70 73 73 70 66 61 58 56 53 49 44 39 35 32 29 26 24 21 20 19 20
62 60 59 58 55 52 48 45 42 42 44 46 46 45 44 43 41 39 39 41 43 49 56 62 67 68 66 63 59 57 53 50 46 42 37 34 31 28 25 22 20 19 20
59 57 55 54 51 46 43 40 38 37 38 43 45 44 42 41 40 38 37 35 36 38 43 50 57 62 64 63 59 56 53 50 47 44 40 36 32 29 26 22 20 19 20
56 55 54 51 47 41 37 34 32 32 33 37 41 42 42 40 40 39 38 35 34 33 36 41 47 53 58 60 59 56 53 50 47 44 41 37 33 29 26 23 21 20 20
55 54 51 47 42 37 32 28 25 26 29 32 36 39 41 40 39 39 38 36 34 33 33 35 40 45 51 56 57 57 54 51 49 45 42 38 35 30 27 24 22 21 21
54 52 49 44 38 33 28 22 18 20 24 28 32 36 38 38 37 37 37 36 35 33 32 32 35 40 45 51 55 55 54 52 48 46 42 39 35 31 28 26 24 23 22
52 51 47 41 36 30 24 17 13 15 19 25 28 31 33 35 35 35 35 34 33 32 30 30 31 35 42 48 52 54 53 50 48 45 42 39 36 33 30 28 25 23 23
51 49 44 39 34 28 21 15 9 8 15 22 26 28 29 31 33 33 32 32 31 31 29 28 29 33 39 46 51 53 52 49 47 44 42 40 36 33 30 28 26 24 23
50 47 43 38 34 28 21 15 9 4 7 15 20 24 26 27 29 30 30 30 29 29 28 27 28 31 39 46 50 50 50 49 46 45 42 39 36 33 30 28 26 25 24
47 45 42 38 34 29 23 17 10 4 3 9 15 20 22 24 26 27 27 28 27 26 25 25 27 32 41 48 50 49 48 47 45 44 42 39 36 33 31 28 26 25 24
46 44 41 37 34 30 25 18 12 6 2 5 10 15 18 20 22 24 25 25 24 24 22 23 27 36 43 49 50 49 47 45 44 43 41 39 36 33 31 29 27 26 25
45 43 40 37 34 31 27 21 14 9 5 4 7 11 15 17 19 21 22 22 22 22 20 22 30 39 44 50 52 49 46 44 43 41 39 38 36 34 32 30 28 26 25
43 42 39 36 34 31 27 22 16 11 7 4 6 9 12 15 17 19 20 20 20 19 18 21 29 37 44 47 48 47 45 43 41 40 39 38 36 35 33 31 29 27 26
42 40 38 36 34 32 28 23 18 14 10 6 5 7 10 13 15 17 18 18 18 17 17 19 27 35 41 43 45 47 45 43 41 40 39 37 36 34 32 31 29 28 27
40 39 38 36 34 31 29 25 21 16 12 9 7 7 9 11 13 15 16 17 16 16 17 19 25 31 36 41 44 44 43 41 39 39 37 35 34 32 31 30 28 28 27
37 37 36 35 33 31 29 26 23 19 14 11 10 9 10 11 13 14 15 15 15 15 17 19 23 29 33 38 41 41 40 38 36 36 35 33 32 31 30 29 28 27 27
35 34 33 33 32 31 30 28 25 21 17 14 13 12 12 12 13 14 14 14 15 17 19 20 23 28 32 36 38 38 37 36 34 33 32 31 30 29 28 28 28 27 27
32 32 31 30 30 29 29 28 26 23 20 18 15 14 14 15 16 16 17 17 19 21 21 22 25 28 31 32 33 33 33 32 31 30 30 29 28 27 27 27 27 27 27
28 29 29 28 27 26 27 27 26 24 22 20 19 17 17 17 18 19 20 21 23 24 25 25 27 29 30 30 29 29 28 28 27 27 26 26 25 25 25 24 24 24 24
25 26 26 26 25 24 24 24 24 23 22 22 21 20 20 20 20 21 23 24 25 26 26 27 27 28 29 28 26 25 25 24 23 23 23 22 22 21 21 21 22 22 22
Wind_Direction
307 304 300 296 292 287 282 277 271 266 261 256 251 248 246 244 241 239 238 238 237 237 238 238 238 238 239 238 239 240 243 247 254 258 261 264 267 272 278 279 275 267 259
309 307 303 300 295 290 285 281 275 269 263 258 254 250 246 244 242 239 238 237 236 236 236 237 238 238 238 238 238 239 240 243 248 254 258 261 264 269 275 277 273 266 258
309 307 304 300 296 292 288 283 278 272 266 260 255 251 248 245 242 240 238 237 235 235 235 236 237 238 237 237 237 237 238 240 243 249 254 257 261 266 272 274 270 263 254
309 306 303 300 297 293 288 283 277 271 266 261 257 254 250 247 243 241 240 238 236 235 234 235 236 236 237 237 236 236 236 237 239 244 250 253 257 261 267 270 266 260 251
308 306 303 301 298 294 289 283 276 270 264 258 254 252 250 248 245 243 241 239 237 236 234 233 234 234 235 235 235 235 236 236 237 241 246 250 252 256 261 265 263 257 249
310 308 306 303 300 296 290 283 276 268 260 254 250 247 246 245 244 243 242 240 239 237 236 234 233 231 232 233 233 232 233 234 235 238 242 245 248 251 256 260 259 254 247
314 311 309 306 303 298 292 285 276 266 257 250 245 242 241 241 241 240 240 240 239 239 238 236 234 232 232 231 230 231 231 232 233 235 238 241 243 247 250 254 253 250 244
318 315 313 310 307 302 294 286 276 266 255 246 240 238 237 236 236 235 236 237 237 238 237 236 235 234 233 231 228 228 229 229 230 231 233 236 239 242 245 247 246 245 240
323 321 318 316 311 305 297 287 276 266 253 241 234 233 232 231 232 233 233 233 234 234 235 235 234 233 232 230 228 227 226 226 226 227 229 232 234 236 239 241 241 242 240
329 327 323 320 316 311 302 291 276 263 249 238 230 228 227 227 229 231 231 230 231 231 233 233 233 232 231 229 226 225 224 223 223 223 225 227 228 231 233 233 233 234 234
334 333 330 327 322 317 309 297 277 258 244 234 226 224 224 225 227 229 229 229 229 230 232 233 232 230 228 226 223 222 221 220 220 220 221 222 223 225 226 226 226 228 229
340 339 337 334 331 326 319 307 280 251 236 227 223 221 221 223 225 227 227 226 227 229 230 231 231 227 224 222 219 217 217 218 217 217 217 219 219 220 221 221 223 224 226
345 345 345 343 340 337 332 322 292 250 230 221 219 219 220 221 222 224 224 224 225 226 227 229 229 225 218 215 212 212 212 213 214 214 214 215 215 216 217 218 219 220 224
351 352 352 352 353 350 348 341 321 264 229 220 219 218 218 218 219 221 222 222 222 223 225 227 227 221 212 207 205 205 207 209 210 210 210 211 212 212 213 214 217 219 221
356 358 359 0 2 3 1 357 348 309 224 215 213 214 214 215 215 216 217 217 219 219 222 226 226 219 205 198 195 197 201 204 206 207 207 208 208 208 209 211 213 215 218
0 2 4 6 8 9 10 9 7 2 206 203 205 208 209 211 211 212 212 213 214 215 219 224 221 209 196 188 188 190 193 198 202 204 205 206 205 206 206 207 209 212 215
3 5 8 10 11 13 15 17 22 34 93 177 194 199 201 203 205 206 206 207 208 210 216 218 208 194 186 183 184 186 189 195 198 201 202 203 203 204 204 206 209 211 212
5 8 11 13 14 16 19 24 32 44 70 133 174 187 192 194 197 199 199 201 204 208 212 210 200 189 183 180 180 183 186 190 195 199 199 199 200 202 203 205 207 210 212
8 10 13 16 18 20 23 28 35 44 61 102 151 174 183 188 191 193 195 198 200 202 203 200 194 187 181 179 180 182 185 188 194 197 197 197 199 200 201 203 206 209 212
11 13 16 18 20 23 27 31 37 44 57 82 129 163 177 184 187 188 190 193 195 194 194 192 190 184 182 179 179 181 183 186 191 193 194 196 197 199 200 202 206 209 213
13 15 17 20 22 25 30 35 41 47 57 71 95 130 156 168 175 180 183 185 186 186 188 188 186 183 182 180 178 180 182 183 188 192 193 195 196 199 201 204 207 211 215
12 16 19 22 25 28 32 36 40 46 55 69 89 111 131 146 156 162 168 171 173 174 175 178 179 178 178 177 178 180 182 183 187 191 193 194 196 200 203 208 211 215 219
12 16 20 24 27 31 35 39 44 49 56 69 86 102 118 135 147 151 153 157 162 163 164 165 168 172 172 172 175 178 182 184 187 189 191 194 198 203 207 211 214 217 221
11 16 20 25 30 34 37 40 45 51 60 71 83 93 105 120 131 137 140 144 148 149 151 155 160 163 166 169 173 176 180 183 186 189 191 196 201 206 210 214 216 219 222
11 15 20 25 30 35 38 41 45 51 60 72 83 92 100 111 122 129 134 138 141 142 145 151 156 159 164 167 171 174 178 182 186 190 194 199 204 208 212 215 217 220 222
10 15 19 24 30 34 38 42 47 54 62 71 83 94 101 108 115 120 126 132 137 141 145 150 154 157 161 164 167 171 175 180 185 190 195 199 204 208 212 214 217 220 224
Height
5701 5697 5693 5689 5685 5682 5679 5677 5676 5675 5676 5678 5680 5683 5687 5691 5696 5701 5706 5710 5715 5720 5725 5729 5734 5738 5743 5748 5753 5757 5761 5764 5766 5767 5769 5770 5770 5770 5769 5768 5767 5767 5768
5683 5679 5674 5669 5664 5661 5658 5655 5654 5653 5653 5654 5657 5660 5664 5668 5673 5679 5685 5691 5697 5703 5709 5714 5720 5725 5730 5736 5741 5746 5751 5755 5758 5759 5761 5763 5763 5763 5762 5762 5761 5761 5762
5666 5660 5654 5649 5644 5639 5635 5632 5630 5630 5630 5630 5633 5636 5639 5644 5649 5655 5662 5669 5677 5684 5691 5698 5704 5710 5717 5723 5729 5734 5740 5745 5749 5751 5753 5755 5756 5756 5756 5755 5755 5755 5756
5648 5640 5633 5627 5622 5617 5613 5610 5607 5606 5607 5608 5610 5613 5616 5620 5626 5632 5639 5647 5655 5663 5672 5680 5688 5695 5702 5709 5716 5722 5728 5734 5739 5742 5745 5747 5749 5749 5749 5749 5749 5749 5750
5630 5620 5611 5604 5598 5593 5589 5586 5584 5583 5584 5585 5588 5591 5595 5599 5604 5609 5616 5624 5633 5642 5651 5660 5669 5678 5686 5694 5702 5709 5716 5723 5729 5733 5736 5739 5742 5743 5743 5743 5743 5743 5744
5611 5601 5590 5581 5574 5568 5563 5560 5559 5559 5561 5564 5567 5572 5576 5580 5585 5590 5596 5603 5612 5621 5631 5641 5650 5660 5669 5677 5686 5695 5703 5711 5718 5723 5728 5731 5734 5736 5736 5737 5737 5737 5739
5594 5582 5571 5560 5552 5544 5539 5536 5535 5536 5539 5543 5548 5553 5559 5564 5568 5574 5579 5586 5593 5602 5611 5621 5631 5641 5651 5661 5670 5679 5689 5698 5706 5713 5719 5723 5726 5728 5730 5730 5731 5732 5734
5578 5565 5553 5542 5532 5523 5517 5515 5514 5515 5518 5523 5530 5536 5543 5549 5555 5560 5566 5572 5579 5586 5594 5603 5614 5624 5634 5645 5655 5666 5676 5686 5695 5703 5709 5714 5718 5721 5723 5724 5725 5727 5728
5564 5550 5537 5525 5515 5506 5500 5496 5495 5496 5500 5505 5513 5521 5528 5536 5542 5548 5555 5561 5567 5573 5580 5588 5597 5608 5620 5631 5643 5654 5664 5673 5683 5691 5699 5704 5709 5713 5716 5718 5720 5721 5723
5552 5538 5524 5511 5500 5492 5485 5481 5479 5481 5485 5490 5498 5507 5516 5524 5531 5538 5544 5551 5557 5563 5569 5576 5584 5594 5604 5616 5629 5641 5652 5662 5672 5680 5688 5695 5701 5705 5709 5712 5714 5716 5718
5543 5528 5513 5499 5489 5480 5473 5469 5467 5469 5473 5479 5487 5496 5505 5513 5521 5527 5534 5541 5547 5553 5559 5564 5571 5579 5590 5603 5616 5629 5641 5651 5661 5670 5679 5686 5692 5697 5702 5705 5708 5711 5714
5535 5520 5505 5492 5480 5472 5465 5461 5459 5461 5465 5471 5478 5486 5495 5504 5511 5518 5525 5532 5538 5544 5549 5555 5560 5568 5578 5590 5604 5617 5629 5640 5651 5661 5670 5678 5685 5690 5695 5698 5701 5705 5709
5530 5514 5500 5487 5476 5467 5461 5457 5456 5457 5460 5465 5472 5480 5488 5496 5503 5510 5517 5524 5530 5536 5541 5546 5552 5558 5567 5579 5592 5605 5618 5630 5642 5652 5662 5670 5677 5682 5687 5691 5695 5699 5703
5527 5512 5498 5486 5475 5467 5461 5457 5455 5455 5458 5463 5469 5476 5483 5490 5497 5504 5510 5517 5523 5529 5534 5539 5544 5550 5558 5569 5581 5595 5609 5621 5633 5644 5653 5661 5668 5675 5680 5685 5690 5694 5697
5526 5512 5499 5487 5478 5469 5463 5459 5456 5456 5457 5461 5466 5472 5479 5485 5492 5498 5504 5511 5517 5522 5527 5532 5537 5542 5550 5561 5574 5587 5601 5613 5625 5636 5645 5654 5661 5668 5673 5679 5684 5688 5692
5528 5514 5502 5491 5482 5473 5467 5462 5459 5458 5459 5462 5465 5470 5476 5482 5488 5494 5500 5506 5512 5518 5522 5526 5530 5535 5544 5555 5568 5581 5594 5607 5619 5629 5639 5647 5655 5661 5667 5673 5677 5682 5687
5529 5517 5506 5496 5486 5478 5471 5466 5463 5462 5462 5464 5467 5470 5475 5480 5486 5491 5497 5503 5508 5514 5517 5521 5525 5531 5539 5551 5563 5576 5589 5601 5612 5623 5633 5641 5649 5655 5661 5667 5672 5677 5681
5532 5521 5510 5501 5492 5484 5477 5471 5468 5467 5466 5467 5469 5472 5476 5480 5485 5490 5495 5501 5506 5510 5514 5517 5522 5528 5537 5548 5560 5572 5584 5596 5607 5617 5627 5635 5643 5650 5656 5661 5666 5671 5676
5536 5526 5516 5506 5498 5490 5483 5478 5474 5472 5471 5471 5472 5475 5477 5481 5485 5490 5494 5499 5504 5508 5512 5516 5521 5527 5536 5546 5558 5570 5581 5593 5603 5614 5622 5631 5638 5645 5651 5656 5661 5666 5671
5541 5531 5521 5512 5504 5497 5490 5484 5480 5478 5476 5476 5476 5478 5480 5483 5486 5490 5494 5499 5504 5508 5512 5516 5522 5529 5537 5546 5557 5568 5579 5590 5601 5610 5619 5626 5633 5640 5646 5651 5657 5661 5666
5546 5537 5527 5519 5511 5504 5497 5492 5487 5484 5482 5481 5480 5481 5483 5485 5488 5492 5495 5500 5505 5509 5513 5518 5524 5530 5538 5547 5558 5569 5579 5589 5598 5608 5616 5623 5629 5636 5642 5647 5652 5656 5661
5552 5543 5534 5526 5518 5511 5505 5499 5494 5491 5488 5486 5486 5486 5487 5489 5491 5494 5498 5502 5507 5511 5516 5521 5527 5534 5542 5550 5560 5570 5580 5589 5598 5606 5614 5620 5627 5633 5638 5643 5648 5652 5657
5557 5549 5541 5533 5526 5519 5513 5507 5502 5498 5495 5493 5492 5491 5492 5493 5496 5498 5502 5506 5510 5514 5519 5525 5531 5539 5546 5555 5564 5573 5581 5590 5598 5605 5612 5618 5624 5630 5635 5639 5644 5648 5652
5562 5554 5547 5540 5534 5528 5522 5516 5511 5506 5503 5500 5499 5498 5498 5499 5501 5504 5507 5510 5514 5519 5524 5530 5537 5544 5552 5559 5567 5575 5583 5590 5598 5604 5610 5616 5621 5626 5631 5635 5639 5644 5648
5566 5559 5553 5547 5541 5536 5530 5525 5520 5516 5512 5509 5507 5506 5506 5507 5508 5511 5513 5517 5521 5525 5531 5537 5543 5550 5557 5564 5571 5579 5585 5592 5598 5604 5609 5614 5619 5624 5628 5632 5636 5640 5644
5570 5564 5558 5553 5548 5543 5538 5534 5529 5525 5521 5519 5517 5516 5515 5516 5517 5519 5521 5524 5528 5533 5538 5543 5549 5555 5562 5568 5575 5581 5587 5593 5598 5603 5608 5613 5617 5622 5626 5630 5633 5637 5640